Flag for Germany Weather past 2 weeks in Niederkassel, North Rhine-Westphalia, Germany

Now
70 °F

Overcast.


Feels Like: 73 °F
Forecast: 64 / 77 °F
Wind: 3 mph from West

Location: Bonn-Hangelar

Current Time: Jul 28, 2014 at 7:36:30 PM

Latest Report: Jul 28, 2014 at 7:00 PM


Visibility: 13 mi

Pressure: 29.85 "Hg

Humidity: 74%

Dew point: 62 °F

Location of NiederkasselLocation

Historic Weather in Niederkassel — Graph

°F

Niederkassel temperature yesterday

Maximum temperature yesterday: 77 °F (at 8:00 PM)
Minimum temperature yesterday: 62 °F (at 3:00 AM)
Average temperature yesterday: 69 °F

Past Weeks' High & Low Weather Summary

 TemperatureHumidityPressure
High93 °F (Jul 19, 5:00 PM)100% (Jul 22, 10:00 AM)30.20 "Hg (Jul 22, 10:00 AM)
Low54 °F (Jul 15, 2:00 AM)23% (Jul 19, 3:00 PM)29.73 "Hg (Jul 13, 7:00 PM)
Average69 °F74%29.98 "Hg
* Reported Jul 13 6:00 PM — Jul 28 6:00 PM, Niederkassel, Weather by CustomWeather, © 2014

Note: Actual official high and low records may vary slightly from our data, if they occured in-between our weather recording intervals... More about our weather records

Advertising

Niederkassel weather history for previous 24 hours

 ConditionsComfort  
Time TempWeatherWind HumidityBarometerVisibility
6:00 PM
Jul 28
70 °FOvercast.3 mph77%29.85 "Hg12 mi
5:00 PM70 °FPartly sunny.3 mph76%29.85 "Hg11 mi
4:00 PM70 °FPartly sunny.6 mph79%29.84 "Hg11 mi
3:00 PM68 °FSprinkles. Overcast.5 mph87%29.86 "Hg9 mi
2:00 PM67 °FThunderstorms. Overcast.3 mph90%29.87 "Hg8 mi
1:00 PM69 °FThunderstorms. Overcast.6 mph80%29.85 "Hg6 mi
12:00 PM71 °FSprinkles. Passing clouds.1 mph73%29.84 "Hg14 mi
11:00 AM71 °FPartly sunny.3 mph72%29.85 "Hg9 mi
10:00 AM70 °FScattered clouds.2 mph75%29.86 "Hg9 mi
9:00 AM68 °FScattered clouds.2 mph82%29.87 "Hg7 mi
8:00 AM65 °FOvercast.2 mph88%29.88 "Hg7 mi
7:00 AM61 °FPartly sunny.2 mph95%29.89 "Hg6 mi
6:00 AM62 °FOvercast.1 mph93%29.90 "Hg6 mi
5:00 AM65 °FOvercast.1 mph88%29.91 "Hg5 mi
4:00 AM64 °FOvercast.1 mph89%29.93 "Hg6 mi
3:00 AM65 °FOvercast.2 mph88%29.95 "Hg6 mi
2:00 AM64 °FOvercast.2 mph90%29.96 "Hg6 mi
1:00 AM65 °FOvercast.1 mph85%29.98 "Hg9 mi
12:00 AM65 °FOvercast.3 mph88%29.99 "Hg7 mi
11:00 PM
Jul 27
66 °FOvercast.3 mph82%29.99 "Hg9 mi
10:00 PM69 °FOvercast.1 mph72%29.98 "Hg8 mi
9:00 PM73 °FPartly sunny.2 mph61%29.96 "Hg19 mi
8:00 PM77 °FPartly sunny.2 mph53%29.95 "Hg19 mi
7:00 PM76 °FPartly sunny.1 mph52%29.95 "Hg19 mi
Weather by CustomWeather, © 2014

See weather overviewHow to use our weather pages